< < Back
Terminal Aerodrome Forecast


Current Version              Previous Versions:   1  2  3  4  5  6  7  8  9  

Terminal Aerodrome Forecast

224
FTUS44 KBMX 260520
TAFANB
TAF
KANB 260520Z 2606/2706 VRB03KT P6SM FEW080 OVC250
     FM261500 07005KT P6SM SCT050
     FM261900 VRB05KT P6SM VCTS BKN050CB
     FM270000 VRB04KT P6SM BKN150 OVC250=

Latest METAR

074
SAUS70 KWBC 260600
MTRANB
METAR KANB 260553Z AUTO 22003KT 10SM CLR 24/22 A3008 RMK AO2 SLP174
T02390217 10272 20239 403780222 58002


USA.gov is the U.S. government's official web portal to all federal, state and local government web resources and services.